Time,TemperatureF,DewpointF,PressureIn,WindDirection,WindDirectionDegrees,WindSpeedMPH,WindSpeedGustMPH,Humidity,HourlyPrecipIn,Conditions,Clouds,dailyrainin,SoftwareType,DateUTC
2013-05-23 00:02:00,73.0,70.0,29.90,West,264,0.0,0.0,89,0.00,,,0.00,,2013-05-23 05:02:00,
2013-05-23 00:43:00,73.0,70.0,29.90,WNW,283,0.0,3.0,91,0.00,,,0.00,,2013-05-23 05:43:00,
2013-05-23 00:52:00,73.0,70.0,29.90,WNW,283,0.0,3.0,91,0.00,,,0.00,,2013-05-23 05:52:00,
2013-05-23 01:02:00,73.0,70.0,29.90,WSW,257,0.0,3.0,91,0.00,,,0.00,,2013-05-23 06:02:00,
2013-05-23 01:12:00,73.0,70.0,29.90,WSW,257,0.0,3.0,91,0.00,,,0.00,,2013-05-23 06:12:00,
2013-05-23 01:22:00,72.0,70.0,29.90,West,281,0.0,2.0,92,0.00,,,0.00,,2013-05-23 06:22:00,
2013-05-23 01:32:00,72.0,70.0,29.90,West,269,0.0,1.0,92,0.00,,,0.00,,2013-05-23 06:32:00,
2013-05-23 01:42:00,72.0,70.0,29.90,West,269,0.0,1.0,92,0.00,,,0.00,,2013-05-23 06:42:00,
2013-05-23 01:52:00,71.0,69.0,29.90,West,269,0.0,0.0,92,0.00,,,0.00,,2013-05-23 06:52:00,
2013-05-23 02:02:00,70.0,68.0,29.90,West,269,0.0,0.0,94,0.00,,,0.00,,2013-05-23 07:02:00,
2013-05-23 02:11:00,70.0,68.0,29.90,West,269,0.0,0.0,94,0.00,,,0.00,,2013-05-23 07:11:00,
2013-05-23 02:22:00,70.0,68.0,29.90,West,269,0.0,0.0,95,0.00,,,0.00,,2013-05-23 07:22:00,
2013-05-23 02:32:00,70.0,68.0,29.90,West,269,0.0,0.0,95,0.00,,,0.00,,2013-05-23 07:32:00,
2013-05-23 02:42:00,70.0,68.0,29.90,West,269,0.0,0.0,95,0.00,,,0.00,,2013-05-23 07:42:00,
2013-05-23 02:59:00,70.0,68.0,29.91,WSW,241,0.0,1.0,95,0.00,,,0.00,,2013-05-23 07:59:00,
2013-05-23 03:12:00,69.0,68.0,29.91,WSW,240,0.0,0.0,95,0.00,,,0.00,,2013-05-23 08:12:00,
2013-05-23 03:22:00,69.0,68.0,29.91,WSW,240,0.0,0.0,95,0.00,,,0.00,,2013-05-23 08:22:00,
2013-05-23 03:32:00,68.0,67.0,29.91,WSW,240,0.0,0.0,96,0.00,,,0.00,,2013-05-23 08:32:00,
2013-05-23 03:42:00,68.0,67.0,29.91,WSW,240,0.0,0.0,96,0.00,,,0.00,,2013-05-23 08:42:00,
2013-05-23 03:51:00,68.0,67.0,29.91,WSW,239,0.0,0.0,96,0.00,,,0.00,,2013-05-23 08:51:00,
2013-05-23 04:02:00,68.0,67.0,29.91,WSW,240,0.0,0.0,96,0.00,,,0.00,,2013-05-23 09:02:00,
2013-05-23 04:11:00,68.0,67.0,29.91,WSW,240,0.0,0.0,96,0.00,,,0.00,,2013-05-23 09:11:00,
2013-05-23 04:22:00,68.0,67.0,29.92,WSW,240,0.0,0.0,97,0.00,,,0.00,,2013-05-23 09:22:00,
2013-05-23 04:33:00,68.0,67.0,29.92,WSW,240,0.0,0.0,97,0.00,,,0.00,,2013-05-23 09:33:00,
2013-05-23 04:42:00,68.0,67.0,29.92,WSW,240,0.0,0.0,97,0.00,,,0.00,,2013-05-23 09:42:00,
2013-05-23 04:53:00,67.0,66.0,29.93,WSW,239,0.0,0.0,97,0.00,,,0.00,,2013-05-23 09:53:00,
2013-05-23 05:03:00,67.0,66.0,29.93,WSW,240,0.0,0.0,97,0.00,,,0.00,,2013-05-23 10:03:00,
2013-05-23 05:13:00,67.0,66.0,29.93,WSW,240,0.0,0.0,97,0.00,,,0.00,,2013-05-23 10:13:00,
2013-05-23 05:22:00,67.0,66.0,29.93,WSW,242,0.0,0.0,97,0.00,,,0.00,,2013-05-23 10:22:00,
2013-05-23 05:32:00,67.0,66.0,29.93,WNW,282,0.0,1.0,96,0.00,,,0.00,,2013-05-23 10:32:00,
2013-05-23 05:42:00,67.0,66.0,29.93,WNW,282,0.0,1.0,96,0.00,,,0.00,,2013-05-23 10:42:00,
2013-05-23 05:52:00,67.0,66.0,29.94,WNW,285,0.0,1.0,96,0.00,,,0.00,,2013-05-23 10:52:00,
2013-05-23 06:02:00,67.0,66.0,29.94,WNW,290,0.0,0.0,96,0.00,,,0.00,,2013-05-23 11:02:00,
2013-05-23 06:11:00,67.0,66.0,29.94,WNW,290,0.0,0.0,96,0.00,,,0.00,,2013-05-23 11:11:00,
2013-05-23 06:22:00,66.0,65.0,29.95,WNW,286,0.0,1.0,96,0.00,,,0.00,,2013-05-23 11:22:00,
2013-05-23 06:32:00,66.0,65.0,29.96,WNW,293,0.0,1.0,96,0.00,,,0.00,,2013-05-23 11:32:00,
2013-05-23 06:42:00,66.0,65.0,29.96,WNW,293,0.0,1.0,96,0.00,,,0.00,,2013-05-23 11:42:00,
2013-05-23 06:52:00,67.0,66.0,29.96,WNW,291,0.0,1.0,95,0.00,,,0.00,,2013-05-23 11:52:00,
2013-05-23 07:01:00,68.0,67.0,29.96,West,270,0.0,1.0,95,0.00,,,0.00,,2013-05-23 12:01:00,
2013-05-23 07:12:00,68.0,67.0,29.96,West,270,0.0,1.0,95,0.00,,,0.00,,2013-05-23 12:12:00,
2013-05-23 07:21:00,69.0,67.0,29.96,West,277,0.0,1.0,93,0.00,,,0.00,,2013-05-23 12:21:00,
2013-05-23 07:32:00,70.0,67.0,29.97,WNW,283,0.0,2.0,91,0.00,,,0.00,,2013-05-23 12:32:00,
2013-05-23 07:42:00,70.0,67.0,29.97,WNW,283,0.0,2.0,91,0.00,,,0.00,,2013-05-23 12:42:00,
2013-05-23 07:52:00,71.0,68.0,29.97,West,273,0.0,5.0,89,0.00,,,0.00,,2013-05-23 12:52:00,
2013-05-23 08:02:00,73.0,69.0,29.97,WNW,285,1.0,4.0,87,0.00,,,0.00,,2013-05-23 13:02:00,
2013-05-23 08:11:00,73.0,69.0,29.97,WNW,285,1.0,4.0,87,0.00,,,0.00,,2013-05-23 13:11:00,
2013-05-23 08:22:00,74.0,69.0,29.97,WNW,284,1.0,4.0,85,0.00,,,0.00,,2013-05-23 13:22:00,
2013-05-23 08:32:00,75.0,69.0,29.98,West,278,1.0,5.0,83,0.00,,,0.00,,2013-05-23 13:32:00,
2013-05-23 08:42:00,75.0,69.0,29.98,West,278,1.0,5.0,83,0.00,,,0.00,,2013-05-23 13:42:00,
2013-05-23 08:52:00,76.0,70.0,29.98,WNW,300,2.0,6.0,82,0.00,,,0.00,,2013-05-23 13:52:00,
2013-05-23 09:02:00,77.0,70.0,29.98,WNW,290,2.0,4.0,79,0.00,,,0.00,,2013-05-23 14:02:00,
2013-05-23 09:11:00,77.0,70.0,29.98,WNW,290,2.0,4.0,79,0.00,,,0.00,,2013-05-23 14:11:00,
2013-05-23 09:21:00,78.0,70.0,29.98,WSW,251,1.0,9.0,77,0.00,,,0.00,,2013-05-23 14:21:00,
2013-05-23 09:32:00,79.0,69.0,29.98,SW,234,2.0,5.0,72,0.00,,,0.00,,2013-05-23 14:32:00,
2013-05-23 09:42:00,79.0,69.0,29.98,SW,234,2.0,5.0,72,0.00,,,0.00,,2013-05-23 14:42:00,
2013-05-23 09:52:00,80.0,68.0,29.98,West,274,1.0,5.0,68,0.00,,,0.00,,2013-05-23 14:52:00,
2013-05-23 10:01:00,81.0,69.0,29.98,NW,307,0.0,7.0,67,0.00,,,0.00,,2013-05-23 15:01:00,
2013-05-23 10:11:00,81.0,69.0,29.98,NW,307,0.0,7.0,67,0.00,,,0.00,,2013-05-23 15:11:00,
2013-05-23 10:22:00,81.0,66.0,29.98,SE,138,2.0,6.0,61,0.00,,,0.00,,2013-05-23 15:22:00,
2013-05-23 10:33:00,82.0,65.0,29.98,ESE,113,0.0,7.0,57,0.00,,,0.00,,2013-05-23 15:33:00,
2013-05-23 10:42:00,82.0,65.0,29.98,ESE,113,0.0,7.0,57,0.00,,,0.00,,2013-05-23 15:42:00,
2013-05-23 10:53:00,83.0,65.0,29.98,South,186,1.0,7.0,54,0.00,,,0.00,,2013-05-23 15:53:00,
2013-05-23 11:03:00,84.0,66.0,29.98,West,269,2.0,5.0,55,0.00,,,0.00,,2013-05-23 16:03:00,
2013-05-23 11:12:00,84.0,66.0,29.98,West,269,2.0,5.0,55,0.00,,,0.00,,2013-05-23 16:12:00,
2013-05-23 11:23:00,84.0,65.0,29.98,ENE,75,2.0,6.0,53,0.00,,,0.00,,2013-05-23 16:23:00,
2013-05-23 11:34:00,84.0,64.0,29.98,NW,307,2.0,7.0,52,0.00,,,0.00,,2013-05-23 16:34:00,
2013-05-23 11:42:00,84.0,64.0,29.98,NW,307,2.0,7.0,52,0.00,,,0.00,,2013-05-23 16:42:00,
2013-05-23 11:52:00,84.0,64.0,29.98,SW,221,1.0,7.0,51,0.00,,,0.00,,2013-05-23 16:52:00,
2013-05-23 12:03:00,85.0,65.0,29.97,West,277,2.0,10.0,52,0.00,,,0.00,,2013-05-23 17:03:00,
2013-05-23 12:11:00,85.0,65.0,29.97,West,277,2.0,10.0,52,0.00,,,0.00,,2013-05-23 17:11:00,
2013-05-23 12:23:00,85.0,64.0,29.96,SW,222,3.0,6.0,49,0.00,,,0.00,,2013-05-23 17:23:00,
2013-05-23 12:33:00,86.0,64.0,29.96,SSW,211,1.0,5.0,48,0.00,,,0.00,,2013-05-23 17:33:00,
2013-05-23 12:43:00,86.0,64.0,29.96,SSW,211,1.0,5.0,48,0.00,,,0.00,,2013-05-23 17:43:00,
2013-05-23 12:53:00,87.0,64.0,29.96,NNE,33,2.0,7.0,47,0.00,,,0.00,,2013-05-23 17:53:00,
2013-05-23 13:01:00,87.0,64.0,29.96,West,260,2.0,7.0,47,0.00,,,0.00,,2013-05-23 18:01:00,
2013-05-23 13:11:00,87.0,64.0,29.96,West,260,2.0,7.0,47,0.00,,,0.00,,2013-05-23 18:11:00,
2013-05-23 13:22:00,87.0,64.0,29.96,East,84,1.0,8.0,47,0.00,,,0.00,,2013-05-23 18:22:00,
2013-05-23 13:32:00,88.0,64.0,29.96,WSW,251,2.0,9.0,45,0.00,,,0.00,,2013-05-23 18:32:00,
2013-05-23 13:42:00,88.0,64.0,29.96,WSW,251,2.0,9.0,45,0.00,,,0.00,,2013-05-23 18:42:00,
2013-05-23 13:52:00,87.0,62.0,29.95,WSW,238,2.0,9.0,44,0.00,,,0.00,,2013-05-23 18:52:00,
2013-05-23 14:02:00,87.0,64.0,29.95,WSW,255,2.0,8.0,46,0.00,,,0.00,,2013-05-23 19:02:00,
2013-05-23 14:11:00,87.0,64.0,29.95,WSW,255,2.0,8.0,46,0.00,,,0.00,,2013-05-23 19:11:00,
2013-05-23 14:21:00,87.0,62.0,29.95,West,267,3.0,8.0,44,0.00,,,0.00,,2013-05-23 19:21:00,
2013-05-23 14:32:00,88.0,63.0,29.95,NE,51,1.0,6.0,44,0.00,,,0.00,,2013-05-23 19:32:00,
2013-05-23 14:42:00,88.0,63.0,29.95,NE,51,1.0,6.0,44,0.00,,,0.00,,2013-05-23 19:42:00,
2013-05-23 14:52:00,89.0,64.0,29.95,West,263,2.0,11.0,43,0.00,,,0.00,,2013-05-23 19:52:00,
2013-05-23 15:02:00,89.0,64.0,29.94,SE,142,2.0,6.0,43,0.00,,,0.00,,2013-05-23 20:02:00,
2013-05-23 15:11:00,89.0,64.0,29.94,SE,142,2.0,6.0,43,0.00,,,0.00,,2013-05-23 20:11:00,
2013-05-23 15:21:00,89.0,64.0,29.94,NNE,23,2.0,7.0,44,0.00,,,0.00,,2013-05-23 20:21:00,
2013-05-23 15:32:00,89.0,64.0,29.93,ENE,65,2.0,6.0,44,0.00,,,0.00,,2013-05-23 20:32:00,
2013-05-23 15:42:00,89.0,64.0,29.93,ENE,65,2.0,6.0,44,0.00,,,0.00,,2013-05-23 20:42:00,
2013-05-23 15:52:00,89.0,64.0,29.93,SSW,193,0.0,8.0,43,0.00,,,0.00,,2013-05-23 20:52:00,
2013-05-23 16:01:00,90.0,64.0,29.93,West,263,1.0,8.0,43,0.00,,,0.00,,2013-05-23 21:01:00,
2013-05-23 16:11:00,90.0,64.0,29.93,West,263,1.0,8.0,43,0.00,,,0.00,,2013-05-23 21:11:00,
2013-05-23 16:22:00,89.0,62.0,29.93,SE,141,1.0,5.0,41,0.00,,,0.00,,2013-05-23 21:22:00,
2013-05-23 16:32:00,89.0,63.0,29.92,WSW,255,2.0,7.0,42,0.00,,,0.00,,2013-05-23 21:32:00,
2013-05-23 16:43:00,89.0,63.0,29.92,WSW,255,2.0,7.0,42,0.00,,,0.00,,2013-05-23 21:43:00,
2013-05-23 16:53:00,90.0,63.0,29.92,WNW,290,1.0,5.0,41,0.00,,,0.00,,2013-05-23 21:53:00,
2013-05-23 17:03:00,89.0,63.0,29.92,West,267,0.0,8.0,42,0.00,,,0.00,,2013-05-23 22:03:00,
2013-05-23 17:12:00,89.0,63.0,29.92,West,267,0.0,8.0,42,0.00,,,0.00,,2013-05-23 22:12:00,
2013-05-23 17:22:00,88.0,62.0,29.92,West,271,1.0,6.0,42,0.00,,,0.00,,2013-05-23 22:22:00,
2013-05-23 17:33:00,88.0,63.0,29.92,WNW,283,3.0,7.0,43,0.00,,,0.00,,2013-05-23 22:33:00,
2013-05-23 17:42:00,88.0,63.0,29.92,WNW,283,3.0,7.0,43,0.00,,,0.00,,2013-05-23 22:42:00,
2013-05-23 17:52:00,87.0,63.0,29.92,SSE,167,0.0,4.0,45,0.00,,,0.00,,2013-05-23 22:52:00,
2013-05-23 18:02:00,87.0,63.0,29.92,West,260,1.0,5.0,45,0.00,,,0.00,,2013-05-23 23:02:00,
2013-05-23 18:11:00,87.0,63.0,29.92,West,260,1.0,5.0,45,0.00,,,0.00,,2013-05-23 23:11:00,
2013-05-23 18:22:00,86.0,63.0,29.91,NW,307,0.0,5.0,47,0.00,,,0.00,,2013-05-23 23:22:00,
2013-05-23 18:32:00,86.0,65.0,29.91,West,278,1.0,3.0,49,0.00,,,0.00,,2013-05-23 23:32:00,
2013-05-23 18:42:00,86.0,65.0,29.91,West,278,1.0,3.0,49,0.00,,,0.00,,2013-05-23 23:42:00,
2013-05-23 18:52:00,85.0,62.0,29.91,WNW,290,0.0,3.0,47,0.00,,,0.00,,2013-05-23 23:52:00,
2013-05-23 19:01:00,84.0,63.0,29.92,NW,321,0.0,2.0,49,0.00,,,0.00,,2013-05-24 00:01:00,
2013-05-23 19:12:00,84.0,63.0,29.92,NW,321,0.0,2.0,49,0.00,,,0.00,,2013-05-24 00:12:00,
2013-05-23 19:21:00,83.0,63.0,29.92,WNW,285,0.0,2.0,51,0.00,,,0.00,,2013-05-24 00:21:00,
2013-05-23 19:32:00,81.0,62.0,29.93,WNW,285,0.0,0.0,53,0.00,,,0.00,,2013-05-24 00:32:00,
2013-05-23 19:42:00,81.0,62.0,29.93,WNW,285,0.0,0.0,53,0.00,,,0.00,,2013-05-24 00:42:00,
2013-05-23 19:52:00,79.0,62.0,29.93,WNW,285,0.0,0.0,57,0.00,,,0.00,,2013-05-24 00:52:00,
2013-05-23 20:01:00,77.0,62.0,29.93,WNW,285,0.0,0.0,59,0.00,,,0.00,,2013-05-24 01:01:00,
2013-05-23 20:12:00,77.0,62.0,29.93,WNW,285,0.0,0.0,59,0.00,,,0.00,,2013-05-24 01:12:00,
2013-05-23 20:22:00,76.0,62.0,29.93,WNW,285,0.0,0.0,62,0.00,,,0.00,,2013-05-24 01:22:00,
2013-05-23 20:32:00,75.0,62.0,29.94,WNW,285,0.0,0.0,63,0.00,,,0.00,,2013-05-24 01:32:00,
2013-05-23 20:42:00,75.0,62.0,29.94,WNW,285,0.0,0.0,63,0.00,,,0.00,,2013-05-24 01:42:00,
2013-05-23 20:52:00,74.0,61.0,29.94,WNW,285,0.0,0.0,64,0.00,,,0.00,,2013-05-24 01:52:00,
2013-05-23 21:02:00,73.0,61.0,29.95,WNW,285,0.0,0.0,65,0.00,,,0.00,,2013-05-24 02:02:00,
2013-05-23 21:12:00,73.0,61.0,29.95,WNW,285,0.0,0.0,65,0.00,,,0.00,,2013-05-24 02:12:00,
2013-05-23 21:22:00,73.0,61.0,29.96,WNW,286,0.0,0.0,66,0.00,,,0.00,,2013-05-24 02:22:00,
2013-05-23 21:32:00,72.0,60.0,29.96,WNW,285,0.0,0.0,67,0.00,,,0.00,,2013-05-24 02:32:00,
2013-05-23 21:42:00,72.0,60.0,29.96,WNW,285,0.0,0.0,67,0.00,,,0.00,,2013-05-24 02:42:00,
2013-05-23 21:52:00,72.0,60.0,29.96,WNW,285,0.0,0.0,67,0.00,,,0.00,,2013-05-24 02:52:00,
2013-05-23 22:02:00,71.0,61.0,29.96,WNW,285,0.0,0.0,71,0.00,,,0.00,,2013-05-24 03:02:00,
2013-05-23 22:11:00,71.0,61.0,29.96,WNW,285,0.0,0.0,71,0.00,,,0.00,,2013-05-24 03:11:00,
2013-05-23 22:22:00,71.0,62.0,29.97,WNW,285,0.0,0.0,72,0.00,,,0.00,,2013-05-24 03:22:00,
2013-05-23 22:33:00,70.0,61.0,29.97,WNW,285,0.0,0.0,74,0.00,,,0.00,,2013-05-24 03:33:00,
2013-05-23 22:42:00,70.0,61.0,29.97,WNW,285,0.0,0.0,74,0.00,,,0.00,,2013-05-24 03:42:00,
2013-05-23 22:53:00,70.0,62.0,29.97,WNW,285,0.0,0.0,75,0.00,,,0.00,,2013-05-24 03:53:00,
2013-05-23 23:03:00,70.0,62.0,29.97,West,279,0.0,0.0,76,0.00,,,0.00,,2013-05-24 04:03:00,
2013-05-23 23:12:00,70.0,62.0,29.97,West,279,0.0,0.0,76,0.00,,,0.00,,2013-05-24 04:12:00,
2013-05-23 23:23:00,69.0,61.0,29.97,West,280,0.0,0.0,77,0.00,,,0.00,,2013-05-24 04:23:00,
2013-05-23 23:33:00,69.0,62.0,29.97,West,279,0.0,0.0,78,0.00,,,0.00,,2013-05-24 04:33:00,
2013-05-23 23:42:00,69.0,62.0,29.97,West,279,0.0,0.0,78,0.00,,,0.00,,2013-05-24 04:42:00,
2013-05-23 23:53:00,69.0,62.0,29.97,West,279,0.0,0.0,78,0.00,,,0.00,,2013-05-24 04:53:00,